Biggs, California, United States (95917)
Lat: 39.41N, Lon: 121.71W
Wx Zone: CAZ016
Local Info
Past Weather Observations for Monday, February 23, 2015

NOTE: This archive is for the closest National Weather Service station to Biggs. Information may differ from the station used for current weather conditions.

Click here for Long-term Archive

Time Weather Temperature Dewpoint Humidity Pressure Winds Precip Visibility
23:53
Clear
45°F / 7°C 18°F / -8°C 34% 30.27 in
(1025 mb)
NE 3.5 mph
(NE 6 kph)
- 10SM
22:53
Clear
46°F / 8°C 16°F / -9°C 29% 30.27 in
(1025 mb)
WNW 4.6 mph
(WNW 7 kph)
- 10SM
21:53
Clear
46°F / 8°C 16°F / -9°C 29% 30.24 in
(1024 mb)
NE 4.6 mph
(NE 7 kph)
- 10SM
20:53
Clear
45°F / 7°C 19°F / -7°C 37% 30.24 in
(1024 mb)
NE 8.1 mph
(NE 13 kph)
- 10SM
19:53
Clear
54°F / 12°C 3°F / -16°C 13% 30.21 in
(1023 mb)
E 6.9 mph
(E 11 kph)
- 10SM
18:53
Clear
54°F / 12°C 9°F / -13°C 16% 30.21 in
(1023 mb)
NE 8.1 mph
(NE 13 kph)
- 10SM
17:53
Clear
57°F / 14°C 14°F / -10°C 18% 30.18 in
(1022 mb)
NNE 12.7 mph
(NNE 20 kph)
- 10SM
16:53
Clear
63°F / 17°C 16°F / -9°C 16% 30.15 in
(1021 mb)
N 11.5 mph
(N 19 kph)
- 10SM
15:53
Clear
66°F / 19°C 16°F / -9°C 14% 30.12 in
(1020 mb)
N 12.7 mph
(N 20 kph)
- 10SM
14:53
Clear
66°F / 19°C 12°F / -11°C 12% 30.12 in
(1020 mb)
NNE 11.5 mph
(NNE 19 kph)
- 10SM
13:53
Clear
64°F / 18°C 12°F / -11°C 13% 30.12 in
(1020 mb)
Variable 5.8 mph
(Variable 9 kph)
- 10SM
12:53
Clear
64°F / 18°C 10°F / -12°C 12% 30.12 in
(1020 mb)
NNE 16.1 mph
(NNE 26 kph)
- 10SM
11:53
Clear
63°F / 17°C 9°F / -13°C 12% 30.12 in
(1020 mb)
N 15 mph
(N 24 kph)
- 10SM
10:53
Clear
61°F / 16°C 9°F / -13°C 12% 30.12 in
(1020 mb)
NNE 12.7 mph
(NNE 20 kph)
- 10SM
09:53
Clear
57°F / 14°C 7°F / -14°C 13% 30.12 in
(1020 mb)
NE 15 mph
(NE 24 kph)
- 10SM
08:53
Clear
54°F / 12°C 9°F / -13°C 16% 30.12 in
(1020 mb)
N 13.8 mph
(N 22 kph)
- 10SM
07:53
Clear
52°F / 11°C 9°F / -13°C 17% 30.09 in
(1019 mb)
N 12.7 mph
(N 20 kph)
- 10SM
06:53
Clear
52°F / 11°C 7°F / -14°C 16% 30.06 in
(1018 mb)
N 11.5 mph
(N 19 kph)
- 10SM
05:53
Clear
48°F / 9°C 9°F / -13°C 20% 30.04 in
(1017 mb)
NW 6.9 mph
(NW 11 kph)
- 10SM
04:53
Clear
48°F / 9°C 10°F / -12°C 21% 30.01 in
(1016 mb)
N 12.7 mph
(N 20 kph)
- 10SM
03:53
Clear
50°F / 10°C 10°F / -12°C 20% 30.01 in
(1016 mb)
N 19.6 mph
(N 32 kph)
- 10SM
02:53
Clear
50°F / 10°C 12°F / -11°C 22% 30.01 in
(1016 mb)
NE 5.8 mph
(NE 9 kph)
- 10SM
01:53
Clear
46°F / 8°C 18°F / -8°C 32% 30.01 in
(1016 mb)
N 6.9 mph
(N 11 kph)
- 10SM
00:53
Clear
46°F / 8°C 18°F / -8°C 32% 30.01 in
(1016 mb)
ENE 8.1 mph
(ENE 13 kph)
- 10SM
Time Weather Temperature Dewpoint Humidity Pressure Winds Precip Visibility


Weather for websites

WeatherForYou.com, LLC is not responsible for any damages or problems caused by this service. Current weather conditions are obtained from the closest station including government and personal stations which may have varying degrees of accuracy. Weather forecasts are derived from the NOAA NDFD. Like all things, this site belongs to Jesus Christ... He just trusts me to maintain it. If you have any questions or comments email webmaster@weatherforyou.com

Copyright © 2015, WeatherForYou.com LLC. All rights reserved.